Find Starlink 11493

NORAD ID: 62410 Int'l Des: 2024-249 Owner: SPXS Country: US Constellation: starlink operational
LEOCIRCULAR

Live Position

Loading 3D Globe...

About Starlink 11493

Description loading...

Upcoming Passes

Passes for default location (London). Set your location on the main map for personalized predictions.

Altitude History

Loading altitude history...

Two-Line Element Set

1 62410U 24249B 26124.18097618 .00181724 00000-0 13820-2 0 9998
2 62410 42.9975 193.5584 0001266 119.0859 241.0136 15.70960384 78201
Epoch: May 4, 2026 • Age: 6 hours

Current Status

Altitude 365.6 km
Velocity 7.69 km/s
Sub-Earth Point -32.31°S, 133.92°E
Launch Date Dec 23, 2024
Age 1.3 years
Type internet

Technical Details

Classification Payload
Mass 960.00 kg
Dry Mass 910.00 kg
Total Mass 960.00 kg
Length 0.30 m
Diameter 4.10 m
Span 29.00 m
Shape Box + pan
Manufacturer SPXS
Bus Type Starlink V2MD
Phase Status In Orbit
Owner/State SPXS/US

Most Searched